Regional Weather Roundup
Issued by NWS

Home | Current Version | Previous Version | Graphics & Text | Print | Product List | Glossary On
Versions: 1 2 3 4 5 6 7 8 9 10 11 12 13 14 15 16 17 18 19 20 21 22 23 24 25 26 27
000
ASUS45 KBOI 220910
RWRID

IDAHO REGIONAL WEATHER ROUNDUP
NATIONAL WEATHER SERVICE BOISE ID
200 AM MST SUN JAN 22 2017

NOTE: "FAIR" INDICATES FEW OR NO CLOUDS BELOW 12000 FEET
WITH NO SIGNIFICANT WEATHER AND/OR OBSTRUCTIONS TO VISIBILITY

IDZ012-014-221000-
SOUTHWEST IDAHO


CITY           SKY/WX    TMP DP  RH WIND       PRES   REMARKS
BOISE          PTCLDY    35  29  78 E12       29.82S WCI  27
CALDWELL       MOCLDY    35  29  78 E12       29.82F WCI  27
MOUNTAIN HOME  CLOUDY    31  31 100 E14       29.84S WCI  21
$$

IDZ016-017-221000-
SOUTHCENTRAL IDAHO


CITY           SKY/WX    TMP DP  RH WIND       PRES   REMARKS
BURLEY         CLOUDY    35  24  64 S12       29.86F WCI  27
JEROME         CLOUDY    31  22  69 NE8       29.86F WCI  23
TWIN FALLS     CLOUDY    36  22  56 S14       29.84F WCI  27
$$

IDZ019>023-221000-
SOUTHEAST IDAHO


CITY           SKY/WX    TMP DP  RH WIND       PRES   REMARKS
IDAHO FALLS    CLOUDY    20  19  96 S6        29.91R WCI  12
POCATELLO      CLOUDY    33  24  69 S8        29.90R WCI  26
REXBURG        CLOUDY    23  22  96 SW7       29.89R WCI  15
$$

IDZ006-010-011-018-031-032-221000-
CENTRAL IDAHO MOUNTAINS


CITY           SKY/WX    TMP DP  RH WIND       PRES   REMARKS
MCCALL         FLURRIES  28  25  88 S7        29.75R WCI  21
HAILEY         CLOUDY    25  21  86 W5        29.88R WCI  19
STANLEY          N/A     19  15  84 CALM      29.79R
SALMON         CLOUDY    10   9  92 CALM      29.87R
CHALLIS        CLOUDY    10  10 100 CALM      29.84R
$$

IDZ002-004-006-007-026-221000-
NORTHERN IDAHO


CITY           SKY/WX    TMP DP  RH WIND       PRES   REMARKS
LEWISTON       PTCLDY    37  30  75 E6        29.75F WCI  32
LOWELL           N/A     33  31  92 CALM      29.84R
COEUR D`ALENE  CLOUDY    33  31  92 NE3       29.74R
MULLAN PASS    CLOUDY    25  22  88 VRB5      29.66S WCI  19
$$




USA.gov is the U.S. government's official web portal to all federal, state and local government web resources and services.